[[{"header":{"parameterUnit":"m.s-1","parameterCategory":1,"la1":30.2991,"la2":30.254,"lo1":-89.0895,"lo2":-89.0444,"dy":0.0017,"dx":0.0017,"nx":28,"ny":28,"refTime":"2024-12-26T09:00:00:Z","depth":0,"parameterNumber":2,"parameterNumberName":"U-component_of_WINDS"},"data":[0,0,0,0,0,0,0,0,0,0,0,0,0,0,0,0,0,0,0,0,0,0,0,0,0,0,0,0,0,0,0,0,0,0,0,0,0,0,0,0,0,0,0,0,0,0,0,0,0,0,0,0,0,0,0,0,0,0,-1.7165,-1.7166,0,-1.727,-1.7271,-1.7272,-1.7306,-1.7305,-1.7305,-1.7305,-1.7414,-1.7417,-1.742,0,0,0,0,0,0,0,0,0,0,0,0,0,-1.6996,-1.6999,-1.7165,-1.7166,-1.7168,-1.727,-1.7271,-1.7273,-1.7306,-1.7305,-1.7305,-1.7304,-1.7413,-1.7417,-1.7421,0,0,0,0,0,0,0,0,0,0,0,0,0,-1.7082,-1.7,-1.7165,-1.7197,-1.7201,-1.7269,-1.7271,-1.7273,-1.7306,-1.7305,-1.7305,-1.7304,-1.7411,-1.7416,-1.7421,-1.7467,0,0,-1.7437,-1.7439,0,0,0,0,0,0,0,0,-1.7077,-1.7088,-1.7191,-1.7195,-1.7199,-1.7274,-1.7252,-1.7338,-1.7306,-1.7266,-1.7305,-1.7304,-1.7368,-1.7377,-1.7398,-1.7472,-1.7477,-1.7437,-1.744,-1.7442,-1.7444,0,0,0,0,0,0,0,-1.7071,-1.7084,-1.7207,-1.7192,-1.7197,-1.7206,-1.7218,-1.7268,-1.732,-1.727,-1.7272,-1.7284,-1.737,-1.7393,-1.7401,-1.7478,-1.7437,-1.7441,-1.7444,-1.7446,-1.7594,-1.7595,0,0,0,0,0,0,-1.7059,-1.7079,-1.7203,-1.721,-1.7135,-1.721,-1.7223,-1.7251,-1.7319,-1.7329,-1.7285,-1.7285,-1.7385,-1.7395,-1.7405,-1.7462,-1.7442,-1.7447,-1.745,-1.7593,-1.7594,-1.7595,0,0,0,0,0,0,-1.7056,-1.707,-1.7199,-1.7145,-1.7162,-1.7214,-1.7245,-1.7253,-1.7276,-1.7331,-1.734,-1.7298,-1.7385,-1.7398,-1.7451,-1.7466,-1.7449,-1.7454,-1.7592,-1.7594,-1.7595,-1.7576,0,0,0,0,0,0,-1.7051,-1.7069,-1.7086,-1.7145,-1.7165,-1.7243,-1.7246,-1.7256,-1.7284,-1.7286,-1.7346,-1.7355,-1.7385,-1.7443,-1.7456,-1.7473,-1.7458,-1.7591,-1.7593,-1.7594,-1.7576,-1.7577,-1.7578,0,0,0,0,0,-1.7045,-1.7077,-1.7087,-1.7102,-1.7188,-1.7244,-1.7255,-1.7288,-1.7285,-1.7303,-1.7339,-1.7353,-1.7462,-1.7448,-1.7463,-1.7481,-1.759,-1.7592,-1.7594,-1.7575,-1.7577,-1.7578,0,0,0,0,0,0,-1.702,-1.7086,-1.7097,-1.715,-1.7191,-1.7249,-1.7273,-1.7288,-1.7332,-1.7332,-1.7371,-1.7385,-1.7434,-1.7464,-1.7447,-1.7529,-1.7527,-1.7532,-1.7508,-1.7509,-1.751,-1.7502,-1.7462,0,0,0,0,0,-1.702,-1.7059,-1.7115,-1.7157,-1.7177,-1.7221,-1.7247,-1.7269,-1.7313,-1.7331,-1.737,-1.7413,-1.7457,-1.7485,-1.7529,-1.7581,-1.7594,-1.7601,-1.7602,-1.7602,-1.7606,-1.7635,-1.7638,-1.7602,-1.7602,-1.7602,0,0,-1.7022,-1.7063,-1.7085,-1.7153,-1.7187,-1.7227,-1.7236,-1.7278,-1.7308,-1.7337,-1.7389,-1.742,-1.7471,-1.7523,-1.7548,-1.7549,-1.7619,-1.7605,-1.7605,-1.7608,-1.7637,-1.7641,-1.7644,-1.7603,-1.7603,-1.7603,0,0,-1.7045,-1.708,-1.7118,-1.7152,-1.7204,-1.7233,-1.7242,-1.7298,-1.7319,-1.7372,-1.7394,-1.7432,-1.7507,-1.7542,-1.7569,-1.7605,-1.762,-1.7619,-1.7624,-1.7652,-1.7654,-1.7657,-1.7669,-1.7673,-1.7622,-1.7622,-1.7622,0,-1.7041,-1.7102,-1.7136,-1.7177,-1.7205,-1.7233,-1.7271,-1.7303,-1.7367,-1.7386,-1.7386,-1.748,-1.7516,-1.7577,-1.7586,-1.7607,-1.7619,-1.7612,-1.7651,-1.7654,-1.7657,-1.7669,-1.7674,-1.7622,-1.7622,-1.7622,-1.7622,0,-1.7093,-1.7135,-1.716,-1.7219,-1.7251,-1.729,-1.7331,-1.7359,-1.7378,-1.7407,-1.7461,-1.7505,-1.7558,-1.7574,-1.7594,-1.7638,-1.7636,-1.7643,-1.7642,-1.7659,-1.7671,-1.7676,-1.7621,-1.7621,-1.7621,-1.7621,0,0,-1.7104,-1.7181,-1.7189,-1.7216,-1.7275,-1.7308,-1.7349,-1.74,-1.7423,-1.7466,-1.7501,-1.7564,-1.757,-1.7602,-1.7626,-1.765,-1.7675,-1.7654,-1.7656,-1.7656,-1.7726,-1.7719,-1.7724,-1.7686,-1.7687,-1.7688,-1.7721,0,-1.7134,-1.7207,-1.7239,-1.7298,-1.7336,-1.7363,-1.7399,-1.7439,-1.7468,-1.7505,-1.7538,-1.7581,-1.7587,-1.7606,-1.7631,-1.7666,-1.7689,-1.7665,-1.7719,-1.772,-1.7704,-1.7731,-1.7724,-1.7754,-1.7726,-1.7727,-1.7728,0,-1.7179,-1.7221,-1.7283,-1.7336,-1.7354,-1.7385,-1.7434,-1.747,-1.7516,-1.7535,-1.757,-1.7592,-1.7637,-1.7633,-1.7695,-1.7677,-1.7701,-1.7722,-1.7724,-1.773,-1.7724,-1.7736,-1.7764,-1.7768,-1.7735,-1.7735,-1.7734,0,-1.7179,-1.7251,-1.7297,-1.732,-1.7383,-1.7405,-1.7432,-1.7478,-1.7506,-1.7549,-1.7568,-1.7616,-1.7642,-1.7679,-1.7714,-1.7708,-1.7772,-1.7772,-1.7789,-1.7788,-1.7801,-1.7799,-1.7832,-1.7818,-1.7818,-1.7818,-1.7818,0,-1.7208,-1.7245,-1.7298,-1.7326,-1.7368,-1.7405,-1.7446,-1.7476,-1.7516,-1.7551,-1.7578,-1.761,-1.7655,-1.7693,-1.7721,-1.7768,-1.778,-1.7796,-1.7803,-1.7794,-1.7791,-1.7809,-1.7808,-1.7819,-1.7819,-1.7818,-1.7818,0,-1.7215,-1.7252,-1.7304,-1.736,-1.7375,-1.7403,-1.7451,-1.748,-1.751,-1.7554,-1.7567,-1.7614,-1.7661,-1.7699,-1.7761,-1.7779,-1.7828,-1.7836,-1.7811,-1.7815,-1.783,-1.7828,-1.7875,-1.7883,-1.7864,-1.7864,-1.7864,0,-1.7231,-1.726,-1.7319,-1.7343,-1.737,-1.741,-1.7439,-1.7476,-1.7505,-1.756,-1.7582,-1.763,-1.7671,-1.7744,-1.7784,-1.7831,-1.784,-1.7854,-1.7848,-1.7837,-1.784,-1.7837,-1.784,-1.7854,-1.7854,-1.7854,-1.7854,0,-1.7256,-1.7272,-1.7312,-1.7358,-1.7391,-1.7429,-1.7469,-1.7488,-1.7532,-1.7563,-1.7611,-1.7642,-1.7704,-1.7751,-1.7803,-1.7832,-1.7851,-1.7856,-1.7862,-1.7852,-1.7836,-1.7844,-1.7812,-1.7854,-1.7854,-1.7854,-1.7854,-1.7854,-1.7267,-1.7294,-1.7339,-1.7382,-1.7415,-1.7451,-1.748,-1.7514,-1.7553,-1.7606,-1.7626,-1.7674,-1.772,-1.779,-1.782,-1.7859,-1.7861,-1.7871,-1.7873,-1.7874,-1.7873,-1.783,-1.7868,-1.7869,-1.7869,-1.7869,-1.7869,0,-1.7292,-1.7322,-1.7362,-1.7415,-1.7449,-1.7462,-1.7506,-1.7534,-1.7576,-1.7617,-1.7655,-1.771,-1.7756,-1.7799,-1.7848,-1.7871,-1.788,-1.7882,-1.788,-1.7887,-1.7868,-1.7857,-1.7873,-1.7873,-1.7873,-1.7873,-1.7873,-1.7873,-1.7309,-1.7354,-1.7376,-1.7438,-1.7469,-1.7515,-1.7539,-1.7572,-1.7604,-1.7663,-1.7701,-1.7729,-1.7771,-1.7823,-1.7866,-1.7878,-1.7894,-1.7894,-1.7907,-1.7889,-1.7888,-1.7887,-1.7877,-1.7897,-1.7897,-1.7923,-1.7923,-1.7923]},{"header":{"parameterUnit":"m.s-1","parameterCategory":1,"la1":30.2991,"la2":30.254,"lo1":-89.0895,"lo2":-89.0444,"dy":0.0017,"dx":0.0017,"nx":28,"ny":28,"refTime":"2024-12-26T09:00:00:Z","depth":0,"parameterNumber":3,"parameterNumberName":"V-component_of_WINDS"},"data":[0,0,0,0,0,0,0,0,0,0,0,0,0,0,0,0,0,0,0,0,0,0,0,0,0,0,0,0,0,0,0,0,0,0,0,0,0,0,0,0,0,0,0,0,0,0,0,0,0,0,0,0,0,0,0,0,0,0,3.521,3.5211,0,3.5351,3.5353,3.5355,3.538,3.5379,3.5378,3.5377,3.5525,3.553,3.5535,0,0,0,0,0,0,0,0,0,0,0,0,0,3.4965,3.4969,3.5209,3.5211,3.5213,3.5351,3.5353,3.5355,3.538,3.5379,3.5378,3.5376,3.5523,3.5529,3.5535,0,0,0,0,0,0,0,0,0,0,0,0,0,3.5085,3.4971,3.5209,3.5242,3.5247,3.5351,3.5353,3.5356,3.5381,3.5379,3.5377,3.5376,3.5521,3.5529,3.5536,3.5618,0,0,3.5559,3.5562,0,0,0,0,0,0,0,0,3.5078,3.5094,3.5236,3.524,3.5245,3.5346,3.5321,3.5444,3.5381,3.533,3.5377,3.5375,3.5467,3.5479,3.5509,3.5625,3.5631,3.556,3.5564,3.5568,3.557,0,0,0,0,0,0,0,3.507,3.5088,3.5266,3.5238,3.5244,3.5251,3.5267,3.5344,3.5407,3.5334,3.5336,3.5353,3.5469,3.5502,3.5513,3.5633,3.556,3.5566,3.5571,3.5574,3.5826,3.5828,0,0,0,0,0,0,3.5055,3.5081,3.5261,3.527,3.5156,3.5257,3.5274,3.5316,3.5406,3.5418,3.5354,3.5353,3.549,3.5504,3.5518,3.5622,3.5567,3.5575,3.5579,3.5823,3.5826,3.5828,0,0,0,0,0,0,3.505,3.5071,3.5256,3.5176,3.52,3.5263,3.531,3.5319,3.5352,3.5421,3.5432,3.5376,3.5489,3.5508,3.5593,3.5628,3.5578,3.5585,3.5821,3.5824,3.5827,3.5829,0,0,0,0,0,0,3.5043,3.5069,3.51,3.5177,3.5204,3.5327,3.5312,3.5323,3.5365,3.5365,3.5444,3.5456,3.5489,3.5582,3.5601,3.5637,3.5591,3.5818,3.5822,3.5826,3.5826,3.5832,3.5837,0,0,0,0,0,3.5034,3.5095,3.5101,3.5123,3.5244,3.5329,3.5345,3.5381,3.5367,3.54,3.5444,3.5453,3.562,3.559,3.5612,3.5651,3.5816,3.5821,3.5826,3.5824,3.5831,3.5837,0,0,0,0,0,0,3.5021,3.5105,3.5114,3.5201,3.5257,3.5333,3.5375,3.5387,3.5449,3.5447,3.5491,3.5508,3.5592,3.563,3.5595,3.5736,3.5718,3.5727,3.5709,3.5716,3.5721,3.5711,3.5597,0,0,0,0,0,3.5028,3.5089,3.5159,3.523,3.5258,3.5311,3.5349,3.5373,3.5433,3.5458,3.5508,3.5568,3.5634,3.5677,3.5741,3.5831,3.585,3.5869,3.5874,3.5878,3.5887,3.5939,3.5949,3.5844,3.5844,3.5844,0,0,3.5044,3.5097,3.5133,3.5229,3.5275,3.5339,3.5331,3.5398,3.5446,3.5468,3.5553,3.5592,3.5661,3.575,3.5791,3.5784,3.592,3.5884,3.5887,3.5893,3.5945,3.5955,3.5964,3.5848,3.5847,3.5846,0,0,3.5105,3.5151,3.5215,3.5262,3.5333,3.5368,3.5383,3.5458,3.5484,3.5569,3.5588,3.5646,3.5758,3.5808,3.5848,3.5929,3.5941,3.5949,3.5977,3.6028,3.6036,3.6044,3.6075,3.6086,3.5956,3.5956,3.5956,0,3.5116,3.5211,3.5247,3.5314,3.5356,3.5378,3.5445,3.5489,3.5577,3.5607,3.5597,3.574,3.5788,3.589,3.591,3.594,3.5961,3.5941,3.6032,3.604,3.6048,3.6078,3.6089,3.5957,3.5957,3.5957,3.5957,0,3.5222,3.5288,3.5332,3.5416,3.5464,3.553,3.5578,3.5621,3.564,3.5677,3.5765,3.5823,3.5901,3.5926,3.5946,3.6032,3.6025,3.6023,3.6005,3.6058,3.6087,3.6099,3.5958,3.5958,3.5957,3.5957,0,0,3.528,3.5384,3.54,3.5439,3.5519,3.5571,3.5639,3.5715,3.5752,3.5812,3.5872,3.5967,3.5966,3.6011,3.6037,3.6081,3.6145,3.6074,3.6076,3.6087,3.6246,3.6249,3.6261,3.6152,3.6154,3.6156,3.6241,0,3.5353,3.5474,3.5509,3.5612,3.5675,3.5697,3.5757,3.5813,3.5849,3.5909,3.5949,3.6017,3.6009,3.6037,3.6082,3.6127,3.6178,3.6121,3.621,3.6213,3.6194,3.6276,3.6279,3.6356,3.6252,3.6254,3.6256,0,3.5454,3.5516,3.5625,3.5698,3.5726,3.5779,3.5852,3.5908,3.5973,3.5996,3.6047,3.6069,3.6142,3.6119,3.6223,3.6184,3.6222,3.625,3.6254,3.6266,3.6239,3.6292,3.6381,3.6393,3.6274,3.6272,3.6271,0,3.5488,3.5599,3.5679,3.5712,3.5799,3.5836,3.5874,3.5937,3.5981,3.6044,3.6074,3.6145,3.6185,3.6241,3.6282,3.6261,3.6383,3.6363,3.6406,3.6406,3.6433,3.6431,3.6531,3.6454,3.6453,3.6453,3.6453,0,3.5567,3.5634,3.5696,3.5745,3.5821,3.5861,3.5935,3.5975,3.6031,3.609,3.6113,3.6168,3.6218,3.628,3.6312,3.6395,3.6412,3.6434,3.6443,3.6434,3.6431,3.6461,3.6457,3.6456,3.6456,3.6455,3.6454,0,3.5619,3.5663,3.5752,3.5827,3.5847,3.59,3.5965,3.6015,3.6052,3.6127,3.6146,3.6205,3.628,3.6326,3.642,3.6442,3.6533,3.6538,3.6511,3.6516,3.6558,3.6554,3.6683,3.6703,3.6609,3.661,3.6611,0,3.5667,3.5719,3.5799,3.584,3.5879,3.5944,3.5988,3.603,3.6076,3.6154,3.6195,3.6271,3.6334,3.6452,3.6505,3.6577,3.6586,3.6626,3.6597,3.6587,3.659,3.6587,3.6593,3.6632,3.6632,3.6633,3.6633,0,3.5749,3.5769,3.5832,3.5903,3.5956,3.6014,3.6072,3.6104,3.6156,3.6207,3.6283,3.6332,3.6428,3.6504,3.6582,3.6623,3.6638,3.6642,3.6656,3.6649,3.6632,3.6644,3.6527,3.6639,3.6639,3.6638,3.6638,3.6638,3.5803,3.5851,3.5915,3.5985,3.6033,3.6087,3.6139,3.6182,3.6246,3.6327,3.6348,3.6429,3.6494,3.66,3.6642,3.6707,3.6701,3.6721,3.6727,3.6732,3.6734,3.662,3.6721,3.6721,3.672,3.672,3.672,0,3.5889,3.5931,3.5995,3.6076,3.6131,3.6139,3.6204,3.6251,3.6321,3.638,3.6441,3.653,3.6604,3.6661,3.6738,3.6779,3.6788,3.6797,3.6796,3.6806,3.6733,3.6714,3.6789,3.6789,3.6789,3.6789,3.6789,3.6789,3.594,3.6022,3.6049,3.6156,3.6198,3.6277,3.6314,3.6364,3.6412,3.651,3.6571,3.6608,3.6667,3.6748,3.6817,3.6832,3.686,3.6869,3.6886,3.6818,3.6811,3.6803,3.6786,3.6874,3.6874,3.6953,3.6954,3.6955]}]]